Location: Venise Bay
(45.0825°N, 73.1481°W)
Time: 06:08:47
(UTC-05:00)

ISS - Pass Details

Date: 26 January 2020
Orbit: 416 x 422 km, 51.6° (Epoch: 20 February)

Event Time Altitude Azimuth Distance (km) Brightness Sun altitude
Rises 18:36:05 0° 273° (W) 2,375 1.6 -18.5°
Reaches altitude 10° 18:38:21 10° 284° (WNW) 1,510 0.1 -18.8°
Maximum altitude 18:41:23 30° 348° (NNW) 786 -2.4 -19.4°
Enters shadow 18:41:44 29° 1° (N) 799 -2.5 -19.4°
